Regional Weather Roundup
Issued by NWS Memphis, TN

Home | Current Version | Previous Version | Text Only | Print | Product List | Glossary On
Versions: 1 2 3 4 5 6 7 8 9 10 11 12 13 14 15 16 17 18 19 20 21 22 23 24 25 26 27 28 29 30 31 32 33 34 35 36 37 38 39 40 41 42 43 44 45 46 47 48 49 50
000
ASUS44 KMEG 151300
RWRMEG
MEMPHIS CWA HOURLY WEATHER ROUNDUP
NATIONAL WEATHER SERVICE MEMPHIS TN
700 AM CST FRI DEC 15 2017

...WEST TENNESSEE...

CITY           SKY/WX    TMP DP  RH WIND       PRES   REMARKS
MEMPHIS INTL   CLOUDY    29  26  89 W3        30.21R
NWS MEMPHIS      N/A     26 N/A N/A MISG        N/A
JACKSON        CLOUDY    32  26  78 W6        30.19R WCI  26
DYERSBURG      CLOUDY    32  24  72 NW3       30.20R


...EASTERN ARKANSAS...

CITY           SKY/WX    TMP DP  RH WIND       PRES   REMARKS
JONESBORO      CLEAR     30  26  85 W6        30.21R WCI  24
WEST MEMPHIS   PTCLDY    23  23 100 CALM      30.22R FOG
BATESVILLE     MOCLDY    26  23  88 CALM      30.20S
NEWPORT        PTCLDY    23  19  85 CALM      30.23
WALNUT RIDGE   CLOUDY    26  24  92 SW5       30.20R WCI  20
BLYTHEVILLE    CLOUDY    30  28  92 CALM      30.21R
SEARCY         CLEAR     22  22 100 CALM      30.23R
STUTTGART      PTCLDY    28  25  88 NW6       30.24R WCI  22
PINE BLUFF     CLOUDY    28  25  88 W3        30.24R
MONTICELLO     CLOUDY    32  27  81 CALM      30.24R


...NORTH MISSISSIPPI...

CITY           SKY/WX    TMP DP  RH WIND       PRES   REMARKS
TUPELO         CLOUDY    30  24  78 CALM      30.19R
OXFORD         CLOUDY    25  23  93 CALM      30.21R
TUNICA           N/A    N/A N/A N/A CALM      30.23R
CLARKSDALE     CLEAR     30  30 100 CALM      30.22R
GREENWOOD      CLOUDY    30  28  92 CALM      30.23R
COLUMBUS       CLOUDY    29  28  95 CALM      30.18R
STARKVILLE     CLOUDY    32  28  86 NW5       30.20R WCI  27
GOLDEN TRIANGL CLOUDY    32  28  85 NW5       30.19R WCI  27


...SOUTHEAST MISSOURI...

CITY           SKY/WX    TMP DP  RH WIND       PRES   REMARKS
KENNETT        CLOUDY    32  30  93 W3        30.19R
MALDEN         CLOUDY    34  28  80 SW3       30.19R
WEST PLAINS    CLOUDY    31  24  75 W6        30.14R WCI  25
POPLAR BLUFF   CLOUDY    31  27  85 SW5       30.18R WCI  26
CAPE GIRARDEAU CLOUDY    30  23  75 SW5       30.16R WCI  25


...NORTHWEST ALABAMA...

CITY           SKY/WX    TMP DP  RH WIND       PRES   REMARKS
MUSCLE SHOALS  CLOUDY    31  23  72 NW5       30.16R WCI  26


...MIDDLE TENNESSEE...

CITY           SKY/WX    TMP DP  RH WIND       PRES   REMARKS
NASHVILLE      CLOUDY    33  20  58 NW7       30.13R WCI  27
CLARKSVILLE    CLOUDY    31  19  61 NW9       30.13R WCI  23


...WESTERN KENTUCKY...

CITY           SKY/WX    TMP DP  RH WIND       PRES   REMARKS
PADUCAH        CLOUDY    32  20  61 NW5       30.15R WCI  27
FORT CAMPBELL  CLOUDY    31  20  63 NW7       30.12R WCI  24


...CENTRAL ARKANSAS...

CITY           SKY/WX    TMP DP  RH WIND       PRES   REMARKS
LITTLE ROCK    PTCLDY    29  25  85 SW6       30.23R WCI  23


SKY/WX REPORTED AS FAIR MEANS FEW OR NO CLOUDS BELOW
12 THOUSAND FEET.





USA.gov is the U.S. government's official web portal to all federal, state and local government web resources and services.